Location: Ailingen
(47.6833°N, 9.5000°E)
Time: 12:21:09
(UTC+00:00)

IRAS Rocket - Pass Details

Date: 18 November 2025
Orbit: 845 x 876 km, 100.1° (Epoch: 11 December)

Event Time Altitude Azimuth Distance (km) Brightness Sun altitude
Rises 17:34:38 0° 159° (SSE) 3,436 7.2 -18.7°
Reaches altitude 10° 17:37:00 10° 159° (SSE) 2,499 6.5 -19.1°
Maximum altitude 17:42:33 84° 71° (ENE) 870 4.1 -20.1°
Drops below altitude 10° 17:48:06 10° 345° (NNW) 2,495 6.7 -21.0°
Sets 17:50:28 0° 345° (NNW) 3,432 7.5 -21.4°
